Stations météo

réclame
Mon MeteoGroup
Mildenhall Royal Air Force Bas, Grande-Bretagne (3577): Température de l'air & dewpoint: 17.10.2018 06:00:00 - 23.10.2018 06:00:00 (BST)Mildenhall Royal Air Force Bas, Grande-Bretagne (3577): Vitesse du vent: 17.10.2018 06:00:00 - 23.10.2018 06:00:00 (BST)Mildenhall Royal Air Force Bas, Grande-Bretagne (3577): Direction du vent: 17.10.2018 06:00:00 - 23.10.2018 06:00:00 (BST)Mildenhall Royal Air Force Bas, Grande-Bretagne (3577): reduced air pressure: 17.10.2018 06:00:00 - 23.10.2018 06:00:00 (BST)Mildenhall Royal Air Force Bas, Grande-Bretagne (3577): visibility: 17.10.2018 06:00:00 - 23.10.2018 06:00:00 (BST)Mildenhall Royal Air Force Bas, Grande-Bretagne (3577): Quantités de précipitations: 17.10.2018 06:00:00 - 23.10.2018 06:00:00 (BST)
Date & Time tt [°C] td [°C] ff [km/h] ff [knt] dd ppp [hPa] vv [km] rr [mm]
23.10.2018 06:00:00 7,4 7,4 21 11 WSW 1029,8 10 -
23.10.2018 05:00:00 6,8 6,8 21 11 WSW 1030,5 10 -
23.10.2018 04:00:00 6,4 6,4 16 9 WSW 1031,5 10 -
23.10.2018 03:00:00 6,6 6,6 16 9 WSW 1031,8 10 -
23.10.2018 02:00:00 6,3 6,3 11 6 W 1032,8 10 -
23.10.2018 01:00:00 6,6 6,6 9 5 WSW 1033,5 10 -
23.10.2018 00:00:00 6,4 6,4 11 6 WSW 1034,5 10 -
22.10.2018 23:00:00 5,9 5,9 8 4 WSW 1035,2 10 -
22.10.2018 22:00:00 5,8 5,8 0 0 N 1035,6 10 -
22.10.2018 21:00:00 5,7 5,7 0 0 N 1035,9 10 -
22.10.2018 20:00:00 5,9 5,9 0 0 N 1036,2 10 -
22.10.2018 19:00:00 7,1 7,1 0 0 N 1036,6 10 -
22.10.2018 18:00:00 8,3 5,9 0 0 N 1036,6 10 -
22.10.2018 17:00:00 12,0 5,2 0 0 N 1036,2 10 -
22.10.2018 16:00:00 12,8 5,0 9 5 NNW 1036,6 10 -
22.10.2018 15:00:00 13,1 5,7 13 7 NNW 1037,2 10 -
22.10.2018 14:00:00 13,3 7,1 8 4 NNW 1036,9 10 -
22.10.2018 13:00:00 12,6 7,7 13 7 N 1037,2 10 -
22.10.2018 12:00:00 11,6 7,9 16 9 N 1037,2 10 -
22.10.2018 11:00:00 10,2 9,0 11 6 NNW 1036,6 10 -
22.10.2018 10:00:00 8,4 8,4 0 0 N 1036,9 10 -
22.10.2018 09:00:00 6,1 6,1 8 4 NNW 1036,2 10 -
22.10.2018 08:00:00 4,2 4,2 0 0 N 1035,5 10 -
22.10.2018 07:00:00 4,5 4,5 11 6 NW 1034,5 10 -
22.10.2018 06:00:00 4,8 4,8 0 0 N 1034,2 10 -
22.10.2018 05:00:00 5,8 5,8 5 3 NNW 1033,5 10 -
22.10.2018 04:00:00 6,4 6,4 9 5 NNW 1033,2 10 -
22.10.2018 03:00:00 7,9 7,9 11 6 NNW 1032,8 10 -
22.10.2018 02:00:00 9,9 9,9 16 9 NNW 1031,8 10 -
22.10.2018 01:00:00 11,9 10,5 16 9 N 1031,1 10 -
22.10.2018 00:00:00 12,4 11,6 16 9 N 1030,4 10 -
21.10.2018 23:00:00 12,7 12,7 18 10 NNW 1029,8 10 0,0
21.10.2018 22:00:00 14,2 14,2 13 7 NNW 1028,8 10 0,0
21.10.2018 21:00:00 15,0 15,0 13 7 NNW 1028,1 10 0,0
21.10.2018 20:00:00 15,6 15,6 9 5 NW 1027,4 10 -
21.10.2018 19:00:00 15,8 15,8 0 0 N 1026,4 10 -
21.10.2018 18:00:00 15,9 15,9 0 0 N 1026,0 10 -
21.10.2018 17:00:00 17,2 15,4 8 4 WSW 1025,4 10 -
21.10.2018 16:00:00 18,1 14,0 13 7 W 1025,0 10 -
21.10.2018 15:00:00 18,5 13,1 13 7 W 1025,4 10 -
21.10.2018 14:00:00 18,6 13,0 11 6 WSW 1025,4 10 -
21.10.2018 13:00:00 17,2 14,8 8 4 WSW 1025,7 10 -
21.10.2018 12:00:00 15,8 15,8 9 5 SW 1026,4 10 -
21.10.2018 11:00:00 14,2 14,2 11 6 SW 1026,7 10 -
21.10.2018 10:00:00 13,0 13,0 11 6 SSW 1027,1 10 -
21.10.2018 09:00:00 10,4 10,4 0 0 N 1027,1 10 -
21.10.2018 08:00:00 7,5 7,5 0 0 N 1027,1 5 -
21.10.2018 07:00:00 8,0 8,0 0 0 N 1027,1 5 -
21.10.2018 06:00:00 8,9 8,9 0 0 N 1027,1 9 -
21.10.2018 05:00:00 9,1 9,1 0 0 N 1027,4 10 -
21.10.2018 04:00:00 9,3 9,3 0 0 N 1027,7 10 -
21.10.2018 03:00:00 9,4 9,4 0 0 N 1028,4 10 -
21.10.2018 02:00:00 9,6 9,6 0 0 N 1028,8 10 -
21.10.2018 01:00:00 10,2 10,2 0 0 N 1029,1 10 -
21.10.2018 00:00:00 10,3 10,3 0 0 N 1029,1 10 -
20.10.2018 23:00:00 10,6 10,6 0 0 N 1029,4 10 -
20.10.2018 22:00:00 11,4 11,4 0 0 N 1029,8 10 -
20.10.2018 21:00:00 12,2 12,2 0 0 N 1029,8 10 -
20.10.2018 20:00:00 13,5 13,5 0 0 N 1030,1 10 -
20.10.2018 19:00:00 14,4 14,4 5 3 SSW 1029,8 10 -
20.10.2018 18:00:00 15,3 15,3 0 0 N 1029,4 10 -
20.10.2018 17:00:00 16,4 15,3 0 0 N 1029,4 10 -
20.10.2018 16:00:00 17,2 14,8 9 5 WSW 1029,4 10 -
20.10.2018 15:00:00 17,2 14,3 13 7 W 1029,8 10 -
20.10.2018 14:00:00 16,7 14,3 9 5 SW 1030,1 10 -
20.10.2018 13:00:00 16,4 14,7 13 7 SW 1030,8 10 -
20.10.2018 12:00:00 15,3 15,3 11 6 SW 1031,1 10 -
20.10.2018 11:00:00 13,0 13,0 0 0 N 1031,1 10 -
20.10.2018 10:00:00 10,5 10,5 0 0 N 1031,1 10 -
20.10.2018 09:00:00 8,5 8,5 0 0 N 1031,1 10 -
20.10.2018 08:00:00 6,1 6,1 0 0 N 1030,5 10 -
20.10.2018 07:00:00 4,8 4,8 0 0 N 1030,5 10 -
20.10.2018 06:00:00 5,3 5,3 0 0 N 1029,8 10 -
20.10.2018 05:00:00 5,7 5,7 0 0 N 1029,8 10 -
20.10.2018 04:00:00 6,6 6,6 0 0 N 1029,1 10 -
20.10.2018 03:00:00 5,2 5,2 0 0 N 1028,8 10 -
20.10.2018 02:00:00 5,8 5,8 0 0 N 1028,8 10 -
20.10.2018 01:00:00 5,6 5,6 0 0 N 1028,4 10 -
20.10.2018 00:00:00 5,7 5,7 0 0 N 1028,4 10 -
19.10.2018 23:00:00 6,1 6,1 0 0 N 1028,1 10 -
19.10.2018 22:00:00 5,5 5,5 0 0 N 1027,8 10 -
19.10.2018 21:00:00 6,4 6,4 0 0 N 1027,8 10 -
19.10.2018 20:00:00 6,3 6,3 0 0 N 1027,4 10 -
19.10.2018 19:00:00 7,7 7,7 0 0 N 1027,1 10 -
19.10.2018 18:00:00 11,6 11,3 0 0 N 1026,4 10 -
19.10.2018 17:00:00 14,2 10,2 0 0 N 1025,7 10 -
19.10.2018 16:00:00 14,0 9,6 0 0 N 1026,1 10 -
19.10.2018 15:00:00 14,4 10,0 9 5 NW 1025,7 10 0,0
19.10.2018 14:00:00 13,7 11,0 0 0 N 1026,4 10 -
19.10.2018 13:00:00 12,0 12,0 0 0 N 1026,7 10 -
19.10.2018 12:00:00 8,1 8,1 5 3 NW 1026,8 10 -
19.10.2018 11:00:00 6,1 6,1 0 0 N 1026,8 1,0 -
19.10.2018 10:00:00 4,8 4,8 0 0 N 1026,8 0,4 -
19.10.2018 09:00:00 4,1 4,1 5 3 WSW 1026,4 0,2 -
19.10.2018 08:00:00 3,3 3,3 0 0 N 1026,1 0,4 0,0
19.10.2018 07:00:00 2,7 2,7 0 0 N 1025,7 1,0 -
19.10.2018 06:00:00 2,5 2,5 0 0 N 1026,1 0,8 -
19.10.2018 05:00:00 2,6 2,6 0 0 N 1026,1 1,0 0,0
19.10.2018 04:00:00 3,0 3,0 0 0 N 1026,1 0,6 -
19.10.2018 03:00:00 2,7 2,7 0 0 N 1026,4 0,8 -
19.10.2018 02:00:00 2,6 2,6 0 0 N 1026,4 0,8 -
19.10.2018 01:00:00 3,4 3,4 0 0 N 1026,7 10 -
19.10.2018 00:00:00 3,6 3,6 0 0 N 1026,7 10 -
18.10.2018 23:00:00 4,7 4,7 0 0 N 1026,7 10 -
18.10.2018 22:00:00 6,0 6,0 0 0 N 1027,1 10 -
18.10.2018 21:00:00 6,0 6,0 0 0 N 1027,1 10 -
18.10.2018 20:00:00 7,7 7,7 8 4 NE 1027,1 10 -
18.10.2018 19:00:00 9,0 9,0 8 4 NE 1027,1 10 -
18.10.2018 18:00:00 10,2 10,2 5 3 NNE 1027,1 10 -
18.10.2018 17:00:00 12,5 10,6 13 7 NNE 1027,1 10 -
18.10.2018 16:00:00 13,8 9,4 11 6 NE 1027,1 9 -
18.10.2018 15:00:00 14,2 9,2 11 6 NNE 1027,1 10 0,0
18.10.2018 14:00:00 14,4 11,0 13 7 NNE 1027,4 10 -
18.10.2018 13:00:00 14,1 14,1 13 7 NE 1027,4 10 -
18.10.2018 12:00:00 13,5 13,5 11 6 NNE 1027,7 10 -
18.10.2018 11:00:00 11,8 11,8 0 0 N 1028,1 10 -
18.10.2018 10:00:00 8,1 8,1 0 0 N 1028,1 2,8 -
18.10.2018 09:00:00 6,3 6,3 0 0 N 1027,4 0,2 -
18.10.2018 08:00:00 5,8 5,8 0 0 N 1027,1 0,2 -
18.10.2018 07:00:00 5,7 5,7 0 0 N 1026,4 0,8 -
18.10.2018 06:00:00 5,8 5,8 0 0 N 1026,1 0,4 -
18.10.2018 05:00:00 5,8 5,8 0 0 N 1026,1 0,6 -
18.10.2018 04:00:00 6,1 6,1 0 0 N 1025,7 0,6 -
18.10.2018 03:00:00 6,6 6,6 0 0 N 1025,4 1,0 -
18.10.2018 02:00:00 6,5 6,5 0 0 N 1025,4 0,4 -
18.10.2018 01:00:00 7,1 7,1 0 0 N 1025,0 10 -
18.10.2018 00:00:00 8,5 8,5 5 3 NNW 1024,7 10 -
17.10.2018 23:00:00 9,0 9,0 0 0 N 1024,0 10 -
17.10.2018 22:00:00 10,3 10,3 0 0 N 1023,7 10 -
17.10.2018 21:00:00 11,0 11,0 5 3 NNE 1023,0 10 -
17.10.2018 20:00:00 11,5 11,5 5 3 N 1022,3 10 -
17.10.2018 19:00:00 12,5 12,5 5 3 N 1021,6 10 -
17.10.2018 18:00:00 13,8 13,8 5 3 NNW 1021,0 10 -
17.10.2018 17:00:00 15,3 15,3 5 3 NNW 1020,3 10 -
17.10.2018 16:00:00 16,4 16,4 8 4 N 1019,9 10 -
17.10.2018 15:00:00 15,9 15,9 5 3 WNW 1019,6 10 -
17.10.2018 14:00:00 14,9 14,9 0 0 N 1019,3 10 -
17.10.2018 13:00:00 14,1 14,1 8 4 WNW 1019,3 10 0,3
17.10.2018 12:00:00 13,5 13,5 5 3 WSW 1018,9 10 0,3
17.10.2018 11:00:00 13,0 13,0 8 4 WSW 1018,9 8 0,3
17.10.2018 10:00:00 12,6 12,6 8 4 SW 1018,3 8 0,3
17.10.2018 09:00:00 12,4 12,4 9 5 SW 1017,9 10 0,0
17.10.2018 08:00:00 12,2 12,2 8 4 SSW 1017,6 10 0,0
17.10.2018 07:00:00 11,9 11,9 9 5 SW 1016,9 10 -
17.10.2018 06:00:00 11,6 11,6 8 4 SSW 1016,5 10 -

tt = Température de l'air
td = dewpoint
ff = Vitesse du vent
dd = Direction du vent
ppp = reduced air pressure
vv = visibility
rr = Quantités de précipitations

stations d'obs. à proximité